Probability
0 0 0 0 0 0 0 0 0 0 0 0 0 0 0 0 0 0 0 1 2 2 2 2 1 0 0 1 3 4 2 1 1 0 0 0 0 0 0 0 0 0 0
0 0 0 0 0 0 0 0 0 0 0 0 0 0 0 0 0 0 0 0 1 1 1 1 0 0 0 1 2 2 1 1 1 0 0 0 0 0 0 0 0 0 0
0 0 0 0 0 0 0 0 0 0 0 0 0 0 0 0 0 0 0 0 0 0 0 0 0 0 0 0 1 1 0 0 1 0 0 0 0 0 0 0 0 0 0
0 0 0 0 0 0 0 0 0 0 0 0 0 0 0 0 0 0 0 0 0 0 0 0 0 0 0 0 0 0 0 0 1 0 0 0 0 0 0 0 0 0 0
0 0 0 0 0 0 0 0 0 0 0 0 0 0 0 0 0 0 0 0 0 0 0 0 0 0 0 0 0 0 0 0 0 0 0 0 0 0 0 0 0 0 0
0 0 0 0 0 0 0 0 0 0 0 0 0 0 0 0 0 0 0 0 0 0 0 0 0 0 0 0 0 0 0 0 0 0 0 0 0 0 0 0 0 0 0
0 0 0 0 0 0 0 0 0 0 0 0 0 0 0 0 0 0 0 0 0 0 0 0 0 0 0 0 0 0 0 0 0 0 0 0 0 0 0 0 0 0 0
0 0 0 0 0 0 0 0 0 0 0 0 0 0 0 0 0 0 0 0 0 0 0 0 0 0 0 0 0 0 0 0 0 0 0 0 0 0 0 0 0 0 0
0 0 0 0 0 0 0 0 0 0 0 0 0 0 0 0 0 0 0 0 0 0 0 0 0 0 0 0 0 0 0 0 0 0 0 0 0 0 0 0 0 0 0
0 0 0 0 0 0 0 0 0 0 0 0 0 0 0 0 0 0 0 0 0 0 0 0 0 0 0 0 0 0 0 0 0 0 0 0 0 0 0 0 0 0 0
0 0 0 0 0 1 0 0 0 0 1 1 1 1 0 0 0 0 0 0 0 0 0 0 0 0 0 0 0 0 0 0 0 0 0 0 0 0 0 0 0 0 0
0 0 0 0 0 0 0 0 0 1 2 2 2 2 1 1 0 0 0 0 0 0 0 0 0 0 0 0 0 0 0 0 0 0 0 0 0 0 0 0 0 0 0
0 0 0 0 0 0 0 0 0 2 3 3 3 3 3 2 1 0 0 0 0 0 0 0 0 0 0 0 0 0 0 0 0 0 0 0 0 0 0 0 0 0 0
0 0 0 0 0 0 0 0 0 1 3 4 3 3 5 5 2 1 0 0 1 1 0 0 0 0 0 0 0 0 0 0 0 0 0 0 0 0 0 0 0 0 0
0 0 0 0 0 0 0 0 0 1 2 4 3 4 6 6 4 2 1 1 2 2 1 0 0 0 0 0 0 0 0 0 0 0 0 0 0 0 0 0 0 0 0
0 0 0 0 0 0 0 0 0 0 1 2 3 3 5 5 3 2 2 2 2 1 0 0 0 0 0 0 0 0 0 0 0 0 0 0 0 0 0 0 0 0 0
0 0 0 0 0 0 0 0 0 0 0 1 1 3 3 4 3 2 2 3 2 1 1 0 0 0 0 0 0 0 0 0 0 0 0 0 0 0 0 0 0 0 0
0 0 0 0 0 0 0 0 0 0 0 0 1 2 4 5 5 5 4 3 2 2 2 1 0 1 1 0 0 0 0 0 0 0 0 0 0 0 0 0 0 0 0
0 0 0 0 0 0 0 0 0 0 0 0 1 2 4 6 7 7 5 3 2 3 3 2 1 1 1 0 0 0 0 0 0 0 0 0 0 0 0 0 0 0 0
0 0 0 0 0 0 0 0 0 0 0 1 2 2 3 6 8 7 5 3 3 3 3 2 1 1 1 0 0 0 0 0 0 0 0 0 0 0 0 0 0 0 0
0 0 0 0 0 0 0 0 0 0 0 1 2 2 2 4 6 6 6 5 5 5 4 2 1 0 0 0 0 0 0 0 0 0 0 0 0 0 0 0 0 0 0
0 0 0 0 0 0 0 0 0 0 0 0 1 1 1 3 3 3 4 5 6 6 4 1 0 0 0 0 0 0 0 0 0 0 0 0 0 0 0 0 0 0 0
0 0 0 0 0 0 0 0 0 0 0 0 0 0 1 2 2 1 2 4 5 5 4 1 1 0 0 0 0 0 0 0 0 0 0 0 0 0 0 0 0 0 0
0 0 0 0 0 0 0 0 0 0 0 0 0 0 0 1 2 2 2 3 4 4 3 2 2 1 1 0 0 0 0 0 0 0 0 0 0 0 0 0 0 0 0
0 0 0 0 0 0 0 0 0 0 0 0 0 0 0 0 1 3 4 4 4 3 2 2 2 2 2 1 0 0 0 0 0 0 0 0 0 0 0 0 0 0 0
0 0 0 0 0 0 0 0 0 0 0 0 0 0 0 0 1 3 5 5 4 3 2 1 1 2 2 2 1 0 0 0 0 0 0 0 0 0 0 0 0 0 0
Wind_Speed
4 5 11 12 12 12 12 11 11 11 10 10 9 9 9 9 9 8 8 8 8 8 8 7 7 8 8 8 8 8 8 8 9 9 9 10 10 10 10 10 9 6 10
8 7 11 12 12 12 12 11 11 10 10 9 9 8 8 8 8 7 7 7 7 7 7 6 6 7 7 7 7 7 7 7 7 8 8 8 9 10 10 10 9 6 10
10 8 9 11 12 11 11 11 10 10 10 9 9 8 8 8 7 7 6 6 6 6 6 5 6 6 6 6 5 5 6 6 6 6 7 4 5 9 9 9 9 9 9
11 8 8 11 11 10 10 10 10 9 9 9 9 8 8 8 7 6 6 6 5 5 5 5 5 5 5 5 4 4 5 5 6 6 4 2 3 8 8 8 8 8 8
10 8 9 12 11 10 10 9 9 9 8 8 8 8 8 7 7 6 6 5 5 5 5 5 4 4 5 4 3 2 3 5 6 6 4 3 3 7 8 8 8 8 7
10 9 10 13 12 11 10 9 9 8 8 8 7 7 7 7 7 6 6 5 5 5 5 4 4 4 4 4 3 1 2 4 6 4 4 3 2 7 8 8 7 7 7
9 8 10 14 13 12 11 10 9 9 8 8 8 7 7 7 7 7 6 6 5 5 5 5 4 4 4 4 3 2 1 3 4 4 3 3 3 7 8 7 7 7 7
9 7 7 13 13 12 12 11 10 10 10 9 9 8 8 8 7 7 7 6 6 5 5 5 5 5 5 5 4 4 2 1 4 4 4 3 5 7 7 7 7 7 7
5 3 1 3 7 11 11 11 11 11 11 10 10 9 9 8 8 8 8 7 7 6 6 6 6 6 6 6 6 5 4 2 3 3 5 3 6 8 8 7 7 7 7
7 6 4 3 1 3 5 10 12 12 12 11 11 10 10 10 9 9 8 9 9 8 8 8 7 7 7 7 7 6 4 2 2 3 3 4 8 8 8 7 7 7 7
5 4 4 4 3 3 3 7 9 10 11 11 10 12 10 5 5 6 8 10 10 10 10 9 9 9 8 8 8 7 3 2 2 2 3 7 10 9 8 8 7 7 7
5 3 3 3 4 4 3 3 3 4 4 5 4 5 4 4 5 7 8 12 13 12 11 11 10 9 7 3 5 6 2 3 2 3 4 9 11 10 9 8 7 7 7
3 3 2 2 3 3 3 2 1 2 2 3 5 5 4 4 4 4 3 5 7 9 6 6 6 4 3 3 3 3 3 3 2 3 5 11 11 11 10 9 8 7 7
4 3 3 2 1 2 2 2 2 2 2 2 3 5 4 3 4 4 3 4 4 3 4 3 3 4 5 5 5 4 4 3 3 3 5 11 11 11 11 10 9 8 7
5 4 4 3 2 2 2 2 2 2 2 3 3 4 5 4 4 4 3 3 4 3 3 4 4 5 5 5 6 6 6 6 6 6 5 11 11 11 11 11 10 9 8
6 6 5 4 3 3 2 2 2 2 3 3 3 4 5 4 4 4 4 4 4 4 4 4 5 5 6 5 7 7 7 7 7 7 5 8 11 11 11 12 11 10 9
7 7 7 6 4 4 4 4 3 3 3 3 4 4 4 4 5 4 4 4 5 5 5 4 5 4 5 6 7 7 6 8 8 8 7 5 6 10 11 11 12 11 11
7 8 7 8 7 6 4 4 3 3 3 3 3 3 5 5 5 5 4 5 5 5 4 5 4 4 5 4 4 5 5 6 9 8 7 6 5 5 8 11 11 11 11
7 7 8 7 7 6 5 4 4 4 3 3 3 3 4 5 5 5 5 5 5 5 5 6 5 4 4 4 4 4 4 5 7 9 7 7 7 6 5 9 11 11 11
7 7 8 8 8 7 5 4 3 4 4 3 3 4 5 4 5 5 4 5 5 5 5 5 6 4 3 4 4 4 4 5 6 7 9 7 6 6 6 6 6 8 11
7 8 7 7 7 6 4 4 4 4 4 4 4 4 5 5 4 4 4 5 5 6 7 7 5 5 4 2 2 1 0 1 4 5 6 6 7 7 6 6 5 4 5
7 7 7 7 7 6 4 4 3 4 4 4 4 4 5 5 5 5 5 5 5 5 6 7 5 4 4 4 3 3 1 1 1 2 4 5 7 6 7 8 6 6 5
6 7 7 7 7 7 6 4 4 3 3 3 4 4 4 5 5 5 5 5 6 6 6 7 7 7 5 4 3 5 5 5 2 1 2 3 5 5 6 6 7 7 7
5 6 6 6 7 7 6 5 5 4 4 4 4 5 6 5 5 5 5 5 6 5 6 7 7 6 6 5 3 2 2 4 4 2 0 1 3 4 5 5 6 6 6
5 5 6 6 6 6 6 5 5 5 4 5 5 6 5 4 4 4 4 4 5 5 6 6 6 7 6 6 4 3 2 1 2 4 3 2 1 1 2 3 4 5 6
5 5 5 6 6 6 7 6 6 7 7 7 7 6 5 4 3 4 3 3 4 4 5 6 6 7 6 6 5 4 4 4 4 4 3 3 3 2 1 1 2 4 5
Wind_Direction
159 170 153 146 142 142 142 142 142 141 139 136 132 128 122 116 112 109 106 103 100 96 92 90 90 88 84 80 78 74 72 73 75 76 76 76 76 77 87 93 90 89 94
154 161 152 147 145 145 146 146 146 146 145 144 143 140 135 130 124 119 116 112 107 104 100 98 97 95 92 88 82 75 71 71 76 80 79 76 79 82 88 95 93 95 95
145 150 149 147 145 145 147 149 151 151 151 151 150 149 148 142 135 130 124 119 117 115 111 109 107 106 102 96 88 77 68 62 68 86 91 75 79 87 90 93 96 97 97
144 147 150 148 145 145 147 148 151 152 153 154 155 155 154 151 147 143 138 134 131 129 126 124 119 118 116 112 101 83 66 55 68 92 97 84 82 91 91 92 94 98 98
146 149 153 152 150 148 149 150 151 153 155 158 160 162 162 160 158 157 154 151 147 145 143 139 135 131 130 128 117 90 70 63 79 96 102 89 80 96 94 91 91 98 102
150 153 160 157 157 157 157 158 160 162 163 166 169 170 170 171 172 172 169 165 162 160 158 155 154 153 150 147 144 124 81 75 92 107 118 110 100 103 97 93 91 94 101
153 161 166 164 165 166 168 169 171 173 175 177 181 184 185 186 186 184 183 179 175 173 170 169 174 177 175 172 176 181 142 90 117 129 135 126 120 111 103 99 96 96 102
150 158 171 173 174 176 179 181 183 185 188 190 192 193 195 196 196 195 195 189 186 186 185 185 190 195 195 193 197 200 191 149 125 140 151 156 142 123 114 107 105 101 99
79 96 146 190 188 190 193 195 196 196 198 199 201 202 202 204 206 206 204 200 199 198 200 201 204 208 209 210 211 212 204 157 130 152 168 171 155 137 126 116 113 110 106
51 41 27 11 309 229 217 213 209 208 207 207 210 210 209 210 212 214 211 210 211 209 210 211 212 215 217 221 223 223 210 152 145 177 172 180 162 146 138 129 124 121 116
49 33 26 23 358 324 258 234 225 223 219 215 215 217 214 210 211 218 219 215 218 216 216 216 217 220 223 228 231 232 216 144 156 169 179 183 166 157 149 142 137 135 128
26 21 25 13 356 347 316 281 247 234 230 222 217 219 212 202 206 216 223 225 224 221 219 221 222 224 226 231 241 239 204 164 166 180 195 186 172 164 158 152 148 145 141
11 9 8 358 350 347 329 321 305 262 246 234 225 218 214 207 210 218 211 231 228 222 218 224 227 223 218 220 230 227 210 185 183 189 198 189 178 172 166 161 158 156 154
7 347 328 323 320 321 325 323 311 302 276 253 241 225 215 212 209 210 211 211 204 197 197 211 219 225 228 229 231 229 218 201 186 188 199 192 183 177 172 169 166 165 163
358 342 320 305 306 303 308 306 321 300 288 277 261 237 218 215 214 206 206 199 196 191 198 212 220 225 233 236 233 228 217 204 191 185 193 192 184 181 176 174 173 171 170
358 347 332 311 297 296 290 283 279 278 271 269 263 254 235 222 220 209 201 197 193 198 207 216 222 225 231 232 235 229 216 196 191 185 186 187 186 182 179 180 179 178 177
357 352 347 340 334 309 296 286 280 277 280 275 269 262 249 234 222 212 205 202 198 198 209 221 230 227 236 235 235 226 211 190 182 182 183 182 186 187 183 183 183 182 182
360 353 349 354 351 338 323 306 294 284 281 276 273 268 254 240 228 215 208 209 197 191 198 215 228 228 235 233 224 212 193 178 177 180 181 183 183 185 190 189 186 185 186
1 353 350 348 347 340 330 317 302 296 289 282 278 273 263 248 236 224 215 209 192 190 194 210 211 210 221 225 217 201 181 172 175 180 183 187 188 183 184 193 189 187 189
358 355 352 349 346 338 329 323 315 310 299 288 276 271 272 260 243 231 226 215 197 194 195 196 197 201 214 208 212 197 183 178 176 181 187 188 190 188 187 186 185 192 193
355 354 350 349 343 343 337 330 320 312 305 300 287 277 275 268 254 232 231 221 205 202 201 193 184 192 212 195 159 168 307 186 183 185 183 180 188 190 187 187 187 185 194
346 344 343 341 337 337 327 310 288 289 289 285 290 295 282 272 259 244 225 221 213 209 206 197 183 176 197 187 159 138 149 312 275 201 182 182 185 182 186 192 190 189 188
341 338 339 332 331 330 331 325 320 314 307 315 315 305 293 283 267 251 238 223 214 206 208 204 192 182 191 200 179 156 158 197 215 255 197 181 175 175 182 184 192 194 192
325 328 332 330 330 330 335 341 341 332 316 303 301 295 298 290 278 261 246 231 220 210 206 205 199 194 183 191 194 190 170 156 156 179 271 170 165 168 176 184 191 193 192
318 324 329 331 330 330 334 337 339 331 311 305 308 307 310 304 293 279 255 233 224 216 210 206 198 194 195 191 182 167 159 142 142 147 171 168 131 152 168 176 179 185 189
317 323 330 335 330 334 337 339 343 336 333 335 333 330 324 313 303 300 281 247 231 218 212 210 203 195 201 198 192 182 172 168 174 163 158 165 166 179 157 156 168 177 180